XNO23M EGCC-EDDK

Flight info

Callsign XNO23M
Flight time 1h 4m
Altitude 35000
Route SANBA N859 HON L15 BIG UL9 KONAN DCT KOK UL607 SPI T857 DENOV T861 ERUKI T856 DEPOK
Aircraft A321/M-SDE3FGHIRWY/LB1

Departure

Time 2026-04-25 13:05
Airport Manchester Airport (EGCC)

Arrival

Time 2026-04-25 14:10
Airport Cologne Bonn Airport (EDDK)
Time Latitude Longitude Altitude Speed Heading
2026-04-25 12:30 53.36552 -2.28364 255 ft 0 kts 315°
2026-04-25 12:49 53.36547 -2.28357 255 ft 4 kts 315°
2026-04-25 12:49 53.36530 -2.28327 255 ft 2 kts 315°
2026-04-25 12:49 53.36518 -2.28301 255 ft 4 kts 259°
2026-04-25 12:50 53.36531 -2.28270 255 ft 3 kts 224°
2026-04-25 12:50 53.36548 -2.28241 255 ft 2 kts 224°
2026-04-25 12:50 53.36549 -2.28240 255 ft 0 kts 224°
2026-04-25 12:53 53.36547 -2.28244 255 ft 2 kts 225°
2026-04-25 12:53 53.36541 -2.28254 255 ft 2 kts 226°
2026-04-25 12:53 53.36525 -2.28283 255 ft 5 kts 226°
2026-04-25 12:54 53.36492 -2.28335 255 ft 8 kts 220°
2026-04-25 12:54 53.36436 -2.28373 255 ft 10 kts 192°
2026-04-25 12:54 53.36369 -2.28327 255 ft 12 kts 139°
2026-04-25 12:54 53.36303 -2.28215 255 ft 15 kts 134°
2026-04-25 12:55 53.36225 -2.28083 255 ft 17 kts 135°
2026-04-25 12:55 53.36178 -2.28003 255 ft 13 kts 137°
2026-04-25 12:55 53.36081 -2.27873 255 ft 14 kts 143°
2026-04-25 12:55 53.36004 -2.27775 255 ft 14 kts 143°
2026-04-25 12:56 53.35909 -2.27727 255 ft 15 kts 180°
2026-04-25 12:56 53.35796 -2.27738 251 ft 18 kts 186°
2026-04-25 12:56 53.35674 -2.27758 244 ft 18 kts 168°
2026-04-25 12:56 53.35631 -2.27648 244 ft 12 kts 63°
2026-04-25 12:57 53.35629 -2.27530 246 ft 11 kts 133°
2026-04-25 12:57 53.35581 -2.27469 245 ft 0 kts 141°
2026-04-25 13:02 53.35569 -2.27453 245 ft 8 kts 141°
2026-04-25 13:02 53.35498 -2.27358 248 ft 18 kts 141°
2026-04-25 13:02 53.35386 -2.27214 246 ft 21 kts 155°
2026-04-25 13:03 53.35232 -2.27222 238 ft 20 kts 192°
2026-04-25 13:03 53.35110 -2.27265 228 ft 18 kts 191°
2026-04-25 13:03 53.35009 -2.27323 225 ft 15 kts 222°
2026-04-25 13:03 53.34981 -2.27379 225 ft 0 kts 230°
2026-04-25 13:04 53.34980 -2.27381 225 ft 1 kts 230°
2026-04-25 13:04 53.34956 -2.27429 225 ft 15 kts 231°
2026-04-25 13:04 53.34725 -2.27915 225 ft 89 kts 231°
2026-04-25 13:05 53.34198 -2.29006 230 ft 148 kts 231°
2026-04-25 13:05 53.33450 -2.30529 353 ft 184 kts 231°
2026-04-25 13:05 53.32635 -2.32275 841 ft 191 kts 233°
2026-04-25 13:05 53.31873 -2.34099 1496 ft 194 kts 245°
2026-04-25 13:06 53.31772 -2.36314 2079 ft 199 kts 286°
2026-04-25 13:06 53.32597 -2.38328 2134 ft 224 kts 313°
2026-04-25 13:06 53.33592 -2.40491 2366 ft 249 kts 295°
2026-04-25 13:06 53.33859 -2.43369 2904 ft 258 kts 258°
2026-04-25 13:07 53.33040 -2.46019 3607 ft 263 kts 223°
2026-04-25 13:07 53.31430 -2.47405 4345 ft 266 kts 188°
2026-04-25 13:07 53.29582 -2.47291 5120 ft 268 kts 169°
2026-04-25 13:07 53.27776 -2.46481 5885 ft 272 kts 154°
2026-04-25 13:08 53.26187 -2.44714 6613 ft 277 kts 141°
2026-04-25 13:08 53.24669 -2.42694 7322 ft 281 kts 146°
2026-04-25 13:08 53.22997 -2.40982 8056 ft 284 kts 152°
2026-04-25 13:08 53.21237 -2.39452 8782 ft 287 kts 154°
2026-04-25 13:09 53.19435 -2.37976 9512 ft 290 kts 154°
2026-04-25 13:09 53.17606 -2.36485 10227 ft 294 kts 154°
2026-04-25 13:09 53.15733 -2.34932 10577 ft 312 kts 154°
2026-04-25 13:09 53.13727 -2.33235 10722 ft 335 kts 153°
2026-04-25 13:10 53.11589 -2.31396 10847 ft 357 kts 153°
2026-04-25 13:10 53.09327 -2.29432 10981 ft 377 kts 153°
2026-04-25 13:10 53.06973 -2.27376 11432 ft 385 kts 153°
2026-04-25 13:10 53.04590 -2.25289 12053 ft 389 kts 153°
2026-04-25 13:11 53.02182 -2.23185 12727 ft 393 kts 153°
2026-04-25 13:11 52.99750 -2.21072 13396 ft 396 kts 153°
2026-04-25 13:11 52.97296 -2.18944 14060 ft 400 kts 153°
2026-04-25 13:11 52.94820 -2.16797 14648 ft 403 kts 153°
2026-04-25 13:12 52.92322 -2.14635 15236 ft 407 kts 153°
2026-04-25 13:12 52.89802 -2.12458 15834 ft 410 kts 154°
2026-04-25 13:12 52.87260 -2.10265 16434 ft 414 kts 154°
2026-04-25 13:12 52.85569 -2.08807 16822 ft 416 kts 154°
2026-04-25 13:13 52.82116 -2.05831 17587 ft 421 kts 154°
2026-04-25 13:13 52.79508 -2.03587 18135 ft 424 kts 154°
2026-04-25 13:13 52.76878 -2.01330 18645 ft 428 kts 154°
2026-04-25 13:13 52.74228 -1.99058 19107 ft 431 kts 154°
2026-04-25 13:14 52.71557 -1.96776 19562 ft 434 kts 154°
2026-04-25 13:14 52.68867 -1.94486 20043 ft 436 kts 154°
2026-04-25 13:14 52.66162 -1.92181 20524 ft 439 kts 154°
2026-04-25 13:14 52.63448 -1.89866 21015 ft 441 kts 154°
2026-04-25 13:15 52.60716 -1.87538 21510 ft 443 kts 154°
2026-04-25 13:15 52.57967 -1.85201 21973 ft 446 kts 154°
2026-04-25 13:15 52.55206 -1.82858 22441 ft 448 kts 154°
2026-04-25 13:15 52.52436 -1.80509 22911 ft 450 kts 154°
2026-04-25 13:16 52.49682 -1.78172 23340 ft 452 kts 154°
2026-04-25 13:16 52.46841 -1.75769 23766 ft 455 kts 154°
2026-04-25 13:16 52.44050 -1.73420 24121 ft 458 kts 155°
2026-04-25 13:16 52.41207 -1.71038 24482 ft 460 kts 155°
2026-04-25 13:17 52.38315 -1.68597 24823 ft 463 kts 153°
2026-04-25 13:17 52.35640 -1.65747 25157 ft 468 kts 144°
2026-04-25 13:17 52.33176 -1.62141 25502 ft 472 kts 135°
2026-04-25 13:17 52.30911 -1.58228 25829 ft 475 kts 135°
2026-04-25 13:18 52.28658 -1.54357 26172 ft 477 kts 135°
2026-04-25 13:18 52.26327 -1.50376 26497 ft 480 kts 135°
2026-04-25 13:18 52.24044 -1.46494 26900 ft 480 kts 135°
2026-04-25 13:18 52.21740 -1.42582 27392 ft 478 kts 135°
2026-04-25 13:19 52.19435 -1.38678 27843 ft 477 kts 135°
2026-04-25 13:19 52.17133 -1.34783 28292 ft 477 kts 135°
2026-04-25 13:19 52.14833 -1.30895 28737 ft 476 kts 136°
2026-04-25 13:19 52.14058 -1.29587 28901 ft 476 kts 136°
2026-04-25 13:20 52.10238 -1.23150 29645 ft 475 kts 136°
2026-04-25 13:20 52.07944 -1.19285 30102 ft 475 kts 136°
2026-04-25 13:20 52.05651 -1.15425 30512 ft 474 kts 136°
2026-04-25 13:20 52.03361 -1.11573 30881 ft 473 kts 136°
2026-04-25 13:21 52.01074 -1.07738 31261 ft 473 kts 136°
2026-04-25 13:21 51.98783 -1.03911 31650 ft 472 kts 136°
2026-04-25 13:21 51.96496 -1.00099 32035 ft 471 kts 136°
2026-04-25 13:21 51.94213 -0.96299 32423 ft 470 kts 136°
2026-04-25 13:22 51.91939 -0.92514 32801 ft 469 kts 136°
2026-04-25 13:22 51.89666 -0.88735 33161 ft 468 kts 136°
2026-04-25 13:22 51.87397 -0.84967 33525 ft 467 kts 136°
2026-04-25 13:23 51.83627 -0.78714 34118 ft 466 kts 136°
2026-04-25 13:23 51.81361 -0.74965 34430 ft 466 kts 136°
2026-04-25 13:23 51.79098 -0.71231 34731 ft 465 kts 136°
2026-04-25 13:23 51.76833 -0.67498 35010 ft 464 kts 136°
2026-04-25 13:24 51.74570 -0.63774 35179 ft 465 kts 136°
2026-04-25 13:24 51.70029 -0.56335 35213 ft 465 kts 136°
2026-04-25 13:25 51.65494 -0.48910 35217 ft 465 kts 136°
2026-04-25 13:25 51.60956 -0.41503 35220 ft 465 kts 136°
2026-04-25 13:26 51.56383 -0.34056 35220 ft 465 kts 136°
2026-04-25 13:26 51.51830 -0.26681 35232 ft 465 kts 136°
2026-04-25 13:27 51.47275 -0.19310 35234 ft 465 kts 136°
2026-04-25 13:27 51.42711 -0.11958 35233 ft 465 kts 137°
2026-04-25 13:28 51.38166 -0.04671 35234 ft 465 kts 137°
2026-04-25 13:28 51.34151 0.03452 35237 ft 469 kts 120°
2026-04-25 13:29 51.31899 0.13235 35253 ft 473 kts 102°
2026-04-25 13:29 51.30658 0.23630 35270 ft 473 kts 102°
2026-04-25 13:30 51.28734 0.39023 35285 ft 473 kts 103°
2026-04-25 13:31 51.26800 0.54482 35280 ft 474 kts 103°
2026-04-25 13:31 51.25500 0.64798 35273 ft 474 kts 103°
2026-04-25 13:32 51.24187 0.75111 35264 ft 474 kts 103°
2026-04-25 13:32 51.22872 0.85418 35255 ft 474 kts 103°
2026-04-25 13:33 51.21549 0.95727 35231 ft 474 kts 103°
2026-04-25 13:33 51.20205 1.06026 35237 ft 474 kts 103°
2026-04-25 13:34 51.18849 1.16318 35242 ft 474 kts 103°
2026-04-25 13:34 51.17498 1.26610 35243 ft 474 kts 103°
2026-04-25 13:35 51.16232 1.36923 35249 ft 475 kts 97°
2026-04-25 13:35 51.15705 1.47428 35243 ft 476 kts 95°
2026-04-25 13:36 51.15209 1.57934 35244 ft 476 kts 95°
2026-04-25 13:36 51.14699 1.68458 35244 ft 477 kts 96°
2026-04-25 13:37 51.14169 1.78982 35246 ft 477 kts 96°
2026-04-25 13:37 51.13627 1.89507 35241 ft 477 kts 96°
2026-04-25 13:38 51.13072 2.00028 35231 ft 477 kts 95°
2026-04-25 13:38 51.12517 2.10567 35233 ft 478 kts 95°
2026-04-25 13:39 51.11953 2.21110 35237 ft 478 kts 96°
2026-04-25 13:39 51.11375 2.31642 35238 ft 478 kts 96°
2026-04-25 13:40 51.10785 2.42192 35237 ft 478 kts 95°
2026-04-25 13:40 51.10194 2.52731 35230 ft 479 kts 96°
2026-04-25 13:41 51.09561 2.63287 35230 ft 479 kts 99°
2026-04-25 13:41 51.07965 2.73537 35228 ft 478 kts 107°
2026-04-25 13:42 51.06119 2.83679 35257 ft 478 kts 107°
2026-04-25 13:42 51.04275 2.93838 35254 ft 479 kts 107°
2026-04-25 13:43 51.02418 3.04003 35244 ft 479 kts 107°
2026-04-25 13:43 51.00551 3.14161 35235 ft 480 kts 107°
2026-04-25 13:44 50.98671 3.24323 35222 ft 480 kts 107°
2026-04-25 13:44 50.96771 3.34465 35214 ft 480 kts 107°
2026-04-25 13:45 50.94871 3.44625 35206 ft 481 kts 107°
2026-04-25 13:45 50.92961 3.54788 35209 ft 481 kts 107°
2026-04-25 13:46 50.91034 3.64945 35211 ft 482 kts 107°
2026-04-25 13:46 50.89086 3.75099 35213 ft 482 kts 108°
2026-04-25 13:47 50.87118 3.85244 35219 ft 482 kts 107°
2026-04-25 13:47 50.85142 3.95393 35222 ft 483 kts 108°
2026-04-25 13:48 50.83158 4.05539 35223 ft 483 kts 108°
2026-04-25 13:48 50.81158 4.15696 35060 ft 483 kts 108°
2026-04-25 13:48 50.80161 4.20751 34804 ft 483 kts 108°
2026-04-25 13:49 50.79170 4.25760 34559 ft 483 kts 108°
2026-04-25 13:49 50.78168 4.30819 34327 ft 483 kts 108°
2026-04-25 13:49 50.77161 4.35892 34074 ft 484 kts 108°
2026-04-25 13:49 50.76136 4.41039 33797 ft 485 kts 108°
2026-04-25 13:50 50.75123 4.46112 33522 ft 486 kts 108°
2026-04-25 13:50 50.74103 4.51211 33254 ft 486 kts 108°
2026-04-25 13:50 50.73081 4.56292 32984 ft 487 kts 108°
2026-04-25 13:50 50.72067 4.61324 32719 ft 488 kts 108°
2026-04-25 13:51 50.71056 4.66438 32465 ft 489 kts 107°
2026-04-25 13:51 50.70064 4.71563 32199 ft 490 kts 107°
2026-04-25 13:51 50.69076 4.76711 31932 ft 491 kts 107°
2026-04-25 13:51 50.68086 4.81869 31673 ft 492 kts 107°
2026-04-25 13:52 50.67088 4.87031 31418 ft 493 kts 107°
2026-04-25 13:52 50.66077 4.92199 31167 ft 493 kts 107°
2026-04-25 13:52 50.65047 4.97352 30914 ft 494 kts 107°
2026-04-25 13:52 50.63989 5.02508 30675 ft 495 kts 108°
2026-04-25 13:53 50.62910 5.07665 30431 ft 496 kts 108°
2026-04-25 13:53 50.61828 5.12816 30194 ft 496 kts 108°
2026-04-25 13:53 50.60748 5.17985 29908 ft 497 kts 107°
2026-04-25 13:53 50.59672 5.23166 29625 ft 498 kts 107°
2026-04-25 13:54 50.58595 5.28349 29340 ft 499 kts 107°
2026-04-25 13:54 50.57515 5.33542 29057 ft 500 kts 107°
2026-04-25 13:54 50.56432 5.38738 28784 ft 500 kts 107°
2026-04-25 13:54 50.55350 5.43938 28511 ft 501 kts 107°
2026-04-25 13:55 50.54261 5.49147 28241 ft 501 kts 107°
2026-04-25 13:55 50.53269 5.54391 27275 ft 503 kts 101°
2026-04-25 13:55 50.52763 5.59855 26112 ft 507 kts 91°
2026-04-25 13:55 50.52804 5.65392 24991 ft 507 kts 82°
2026-04-25 13:56 50.53371 5.70837 23962 ft 504 kts 73°
2026-04-25 13:56 50.54402 5.76048 23263 ft 494 kts 68°
2026-04-25 13:56 50.55486 5.81122 22503 ft 488 kts 68°
2026-04-25 13:56 50.56537 5.86163 21728 ft 482 kts 69°
2026-04-25 13:57 50.57563 5.91151 20950 ft 476 kts 69°
2026-04-25 13:57 50.57891 5.92753 20703 ft 474 kts 70°
2026-04-25 13:57 50.59574 6.00951 19471 ft 465 kts 70°
2026-04-25 13:57 50.60566 6.05763 18776 ft 459 kts 70°
2026-04-25 13:58 50.61550 6.10517 18015 ft 454 kts 70°
2026-04-25 13:58 50.62526 6.15223 17213 ft 450 kts 70°
2026-04-25 13:58 50.63247 6.19994 16431 ft 447 kts 80°
2026-04-25 13:58 50.63445 6.24849 15678 ft 444 kts 90°
2026-04-25 13:59 50.63230 6.29619 14954 ft 441 kts 94°
2026-04-25 13:59 50.62983 6.34419 14265 ft 438 kts 93°
2026-04-25 13:59 50.62739 6.39249 13564 ft 434 kts 93°
2026-04-25 13:59 50.62504 6.43900 12904 ft 431 kts 93°
2026-04-25 14:00 50.62343 6.47063 12474 ft 428 kts 93°
2026-04-25 14:00 50.62025 6.53192 11931 ft 415 kts 93°
2026-04-25 14:00 50.61787 6.57633 11802 ft 398 kts 93°
2026-04-25 14:00 50.61556 6.61885 11673 ft 382 kts 93°
2026-04-25 14:01 50.61335 6.65952 11550 ft 366 kts 93°
2026-04-25 14:01 50.61313 6.69862 11421 ft 348 kts 80°
2026-04-25 14:01 50.61897 6.73452 11295 ft 330 kts 64°
2026-04-25 14:01 50.62972 6.76495 11151 ft 309 kts 50°
2026-04-25 14:02 50.64417 6.78926 10872 ft 300 kts 36°
2026-04-25 14:02 50.66106 6.80794 10536 ft 296 kts 30°
2026-04-25 14:02 50.67813 6.82579 10242 ft 293 kts 30°
2026-04-25 14:02 50.68384 6.83180 10138 ft 291 kts 31°
2026-04-25 14:03 50.70690 6.87162 9465 ft 298 kts 60°
2026-04-25 14:03 50.71353 6.90252 9093 ft 301 kts 79°
2026-04-25 14:03 50.71512 6.93545 8686 ft 301 kts 85°
2026-04-25 14:03 50.71622 6.96828 8314 ft 299 kts 85°
2026-04-25 14:04 50.71695 6.98995 8076 ft 298 kts 85°
2026-04-25 14:04 50.71805 7.02231 7566 ft 293 kts 84°
2026-04-25 14:04 50.71914 7.05461 7142 ft 294 kts 84°
2026-04-25 14:04 50.72020 7.08671 6810 ft 292 kts 84°
2026-04-25 14:05 50.72124 7.11863 6475 ft 290 kts 84°
2026-04-25 14:05 50.72224 7.15026 6122 ft 288 kts 85°
2026-04-25 14:05 50.72325 7.18181 5716 ft 289 kts 85°
2026-04-25 14:05 50.72431 7.21424 4917 ft 300 kts 85°
2026-04-25 14:06 50.72560 7.24694 4094 ft 295 kts 79°
2026-04-25 14:06 50.73326 7.27493 3722 ft 266 kts 44°
2026-04-25 14:06 50.74774 7.28930 3589 ft 237 kts 13°
2026-04-25 14:06 50.76384 7.29002 3162 ft 228 kts 344°
2026-04-25 14:07 50.77703 7.27842 2978 ft 210 kts 318°
2026-04-25 14:07 50.78761 7.26260 2987 ft 202 kts 315°
2026-04-25 14:07 50.79733 7.24777 2719 ft 188 kts 317°
2026-04-25 14:07 50.80708 7.23468 2276 ft 181 kts 319°
2026-04-25 14:08 50.81659 7.22176 1883 ft 174 kts 317°
2026-04-25 14:08 50.82511 7.20944 1506 ft 161 kts 315°
2026-04-25 14:08 50.83309 7.19733 1114 ft 156 kts 317°
2026-04-25 14:08 50.84101 7.18613 740 ft 150 kts 317°
2026-04-25 14:09 50.84871 7.17501 526 ft 146 kts 317°
2026-04-25 14:09 50.85612 7.16431 360 ft 143 kts 316°
2026-04-25 14:09 50.86301 7.15431 271 ft 122 kts 317°
2026-04-25 14:09 50.86670 7.14905 261 ft 98 kts 317°
2026-04-25 14:10 50.87278 7.14026 255 ft 71 kts 317°
2026-04-25 14:10 50.87586 7.13562 248 ft 47 kts 317°
2026-04-25 14:10 50.87777 7.13285 248 ft 26 kts 314°
2026-04-25 14:10 50.87839 7.13106 242 ft 17 kts 270°
2026-04-25 14:11 50.87820 7.12956 237 ft 10 kts 256°
2026-04-25 14:11 50.87797 7.12820 232 ft 14 kts 255°
2026-04-25 14:11 50.87795 7.12667 232 ft 15 kts 299°
2026-04-25 14:11 50.87859 7.12609 231 ft 5 kts 353°
2026-04-25 14:12 50.87868 7.12608 230 ft 0 kts 354°
2026-04-25 14:12 50.87869 7.12608 230 ft 1 kts 356°
2026-04-25 14:12 50.87871 7.12608 230 ft 0 kts 358°
2026-04-25 14:12 50.87876 7.12608 230 ft 0 kts 358°
2026-04-25 14:13 50.87882 7.12607 230 ft 2 kts 358°
2026-04-25 14:13 50.87920 7.12595 231 ft 7 kts 339°
2026-04-25 14:13 50.87967 7.12544 231 ft 9 kts 317°
2026-04-25 14:13 50.88019 7.12466 230 ft 11 kts 316°
2026-04-25 14:14 50.88076 7.12371 230 ft 13 kts 310°
2026-04-25 14:14 50.88114 7.12241 232 ft 14 kts 300°
2026-04-25 14:14 50.88171 7.12115 230 ft 15 kts 306°
2026-04-25 14:14 50.88234 7.11975 231 ft 16 kts 305°
2026-04-25 14:15 50.88290 7.11850 230 ft 10 kts 302°
2026-04-25 14:15 50.88296 7.11814 232 ft 10 kts 278°
2026-04-25 14:15 50.88261 7.11698 230 ft 5 kts 218°
2026-04-25 14:15 50.88258 7.11666 230 ft 2 kts 273°
2026-04-25 14:16 50.88260 7.11649 230 ft 3 kts 278°
2026-04-25 14:16 50.88263 7.11624 230 ft 2 kts 284°
2026-04-25 14:16 50.88266 7.11610 233 ft 1 kts 284°
2026-04-25 14:16 50.88266 7.11607 232 ft 0 kts 285°